Location: Rounton
(54.4000°N, 1.3500°W)
Time: 12:54:26
(UTC+00:00)

Transit 2A Rocket - Pass Details

Date: 08 December 2021
Orbit: 584 x 918 km, 66.7° (Epoch: 17 January)

Event Time Altitude Azimuth Distance (km) Brightness Sun altitude
Rises 06:55:23 0° 204° (SSW) 3,369 8.3 -10.4°
Reaches altitude 10° 06:57:47 10° 201° (SSW) 2,481 7.7 -10.0°
Maximum altitude 07:03:28 59° 123° (ESE) 1,025 6.0 -9.3°
Drops below altitude 10° 07:09:29 10° 46° (NE) 2,617 8.0 -8.5°
Sets 07:12:04 0° 43° (NE) 3,568 8.7 -8.2°
